Skip Page Navigation
NASA JPL Caltech
NASA Logo - Jet Propulsion Laboratory + View the NASA Portal
+ Near-Earth Object (NEO) Program
Search JPL
JPL Home Earth Solar System Stars & Galaxies Technology
JPL Solar System Dynamics
BODIES ORBITS EPHEMERIDES TOOLS PHYSICAL DATA DISCOVERY FAQ SITE MAP
JPL Small-Body Database Browser
Search: [ help ]  
157421 Carolpercy (2004 TX299)
Classification: Main-belt Asteroid          SPK-ID: 2157421
Ephemeris | Orbit Diagram | Orbital Elements | Physical Parameters | Discovery Circumstances ]

[ hide orbit diagram ]
Orbit Diagram
Note: Make sure you have Java enabled on your browser to see the applet. This applet is provided as a 3D orbit visualization tool. The applet was implemented using 2-body methods, and hence should not be used for determining accurate long-term trajectories (over several years or decades) or planetary encounter circumstances. For accurate long-term ephemerides, please instead use our Horizons system.
Orbit Viewer

Additional Notes: the orbits shown in the applet are color coded. The planets are white lines, and the asteroid/comet is a blue line. The bright white line indicates the portion of the orbit that is above the ecliptic plane, and the darker portion is below the ecliptic plane. Likewise for the asteroid/comet orbit, the light blue indicates the portion above the ecliptic plane, and the dark blue the portion below the ecliptic plane.

Orbit Viewer applet originally written and kindly provided by Osamu Ajiki (AstroArts), and further modified by Ron Baalke (JPL).


Orbital Elements at Epoch 2456400.5 (2013-Apr-18.0) TDB
Reference: MPO248231 (heliocentric ecliptic J2000)
 Element Value Uncertainty (1-sigma)   Units 
e 0.1563371 n/a  
a 2.5212880 n/a AU
q 2.1271171 n/a AU
i 0.43624 n/a deg
node 278.65164 n/a deg
peri 23.15977 n/a deg
M 105.90194 n/a deg
tp 2455970.3365315
(2012-Feb-12.83653150)
n/a JED
period 1462.2852863
4.00
n/a
n/a
d
yr
n 0.24618999 n/a deg/d
Q 2.9154589 n/a AU
  Orbit Determination Parameters
   # obs. used (total)      135  
   first obs. used      2000-??-??  
   last obs. used      2012-12-05  
   # oppositions      9  
   planetary ephem.      DE403  
   condition code      0  
   fit RMS      0.42  
   data source      MPC:mpu  
   producer      MPCLINUX  

Additional Information
 T_jup = 3.439 

Ephemeris | Orbit Diagram | Orbital Elements | Physical Parameters | Discovery Circumstances ]

Physical Parameter Table
Parameter Symbol Value Units Sigma Reference Notes
absolute magnitude H 17.2 mag n/a MPO248231  

157421 Carolpercy           Discovered 2004 Oct. 8 by T. Glinos, D. Levy and W. Levy at Jarnac.
Carol Percy (b. 1964), a professor at the University of Toronto, studied James Cook's 1768-1771 Endeavour journal and how it was "corrected" for publication. She has also examined the social impact of the standardization of English, especially as it relates to those marginalized and/or educationally disadvantaged.
NOTE: some special characters may not display properly (any characters within {} are an attempt to place the proper accent above a character)
Reference: 20070926/MPCPages.arcLast Updated: 2007-09-30

Alternate Designations
 2004 TX299 = 2000 SE326 
Ephemeris | Orbit Diagram | Orbital Elements | Physical Parameters | Discovery Circumstances ]
ABOUT SSD CREDITS/AWARDS PRIVACY/COPYRIGHT GLOSSARY LINKS
FirstGov 2013-May-24 02:26 UT
(server date/time)  
NASA Home Page
Site Manager:   Donald K. Yeomans
Webmaster  Alan B. Chamberlin